Location: Unspecified
(0.0000°N, 0.0000°E)
Time: 03:07:29
(UTC+00:00)

PCSat - Visible Passes

Search period start: 27 April 2018 00:00
Search period end: 07 May 2018 00:00
Orbit: 785 x 795 km, 67.1° (Epoch: 26 April)

Date Brightness Start Highest point End Pass type
(mag) Time Alt. Az. Time Alt. Az. Time Alt. Az.
30 Apr 12.0 20:13:41 10° N 20:13:57 11° N 20:13:57 11° N visible
01 May 11.6 19:43:26 10° NNE 19:44:35 15° NNE 19:44:35 15° NNE visible
02 May 11.4 19:13:41 10° NNE 19:15:18 14° NE 19:15:18 14° NE visible
02 May 12.2 20:55:10 10° NW 20:56:04 14° NW 20:56:04 14° NW visible
03 May 11.1 20:23:52 10° NNW 20:26:52 32° NW 20:26:52 32° NW visible
04 May 9.6 19:52:50 10° NNW 19:57:44 73° NW 19:57:44 73° NW visible
05 May 9.5 19:22:01 10° N 19:27:21 64° ENE 19:28:41 48° SE visible
06 May 10.0 18:51:26 10° N 18:56:29 40° ENE 18:59:40 20° SE visible
06 May 12.2 20:37:15 10° W 20:39:36 13° WSW 20:40:28 12° WSW visible
